AEE980 LGMK-LGAV

Flight info

Callsign AEE980
Flight time 0h 21m
Altitude 14000
Route VARIX
Aircraft A320/M-SDE3FGHIRWY/LB1

Departure

Time 2026-04-30 19:48
Airport Mykonos Island National Airport (LGMK)

Arrival

Time 2026-04-30 20:10
Airport Athens Eleftherios Venizelos International Airport (LGAV)
Time Latitude Longitude Altitude Speed Heading
2026-04-30 19:23 37.43526 25.34641 415 ft 0 kts 251°
2026-04-30 19:39 37.43531 25.34657 414 ft 4 kts 244°
2026-04-30 19:39 37.43546 25.34683 406 ft 4 kts 208°
2026-04-30 19:39 37.43550 25.34686 407 ft 0 kts 197°
2026-04-30 19:42 37.43541 25.34688 408 ft 2 kts 166°
2026-04-30 19:42 37.43518 25.34698 411 ft 5 kts 158°
2026-04-30 19:42 37.43480 25.34719 414 ft 7 kts 156°
2026-04-30 19:43 37.43435 25.34767 414 ft 10 kts 128°
2026-04-30 19:43 37.43389 25.34851 410 ft 13 kts 128°
2026-04-30 19:43 37.43305 25.34909 414 ft 15 kts 159°
2026-04-30 19:44 37.43074 25.35012 415 ft 20 kts 160°
2026-04-30 19:44 37.42938 25.35071 412 ft 22 kts 162°
2026-04-30 19:44 37.42794 25.35127 415 ft 21 kts 166°
2026-04-30 19:44 37.42695 25.35132 415 ft 10 kts 118°
2026-04-30 19:45 37.42736 25.35165 413 ft 3 kts 337°
2026-04-30 19:45 37.42742 25.35160 416 ft 0 kts 332°
2026-04-30 19:45 37.42746 25.35159 416 ft 0 kts 338°
2026-04-30 19:47 37.42746 25.35158 416 ft 0 kts 338°
2026-04-30 19:47 37.42947 25.35068 409 ft 68 kts 341°
2026-04-30 19:48 37.43597 25.34788 414 ft 127 kts 341°
2026-04-30 19:48 37.44522 25.34390 745 ft 141 kts 340°
2026-04-30 19:48 37.45443 25.33992 1286 ft 140 kts 339°
2026-04-30 19:48 37.46373 25.33569 1806 ft 144 kts 331°
2026-04-30 19:49 37.47137 25.32662 2065 ft 162 kts 297°
2026-04-30 19:49 37.47596 25.29552 2604 ft 204 kts 275°
2026-04-30 19:49 37.47767 25.27662 2993 ft 230 kts 276°
2026-04-30 19:50 37.47965 25.25561 3545 ft 251 kts 276°
2026-04-30 19:50 37.48180 25.23339 4436 ft 259 kts 276°
2026-04-30 19:50 37.48178 25.21058 5361 ft 265 kts 258°
2026-04-30 19:50 37.47452 25.18945 6315 ft 271 kts 235°
2026-04-30 19:51 37.46213 25.17137 7257 ft 274 kts 230°
2026-04-30 19:51 37.44921 25.15339 8224 ft 276 kts 230°
2026-04-30 19:51 37.43637 25.13556 9173 ft 279 kts 230°
2026-04-30 19:51 37.42323 25.11728 10082 ft 283 kts 230°
2026-04-30 19:52 37.40954 25.09812 10491 ft 305 kts 230°
2026-04-30 19:52 37.39495 25.07739 10828 ft 324 kts 233°
2026-04-30 19:52 37.38309 25.05323 11479 ft 330 kts 248°
2026-04-30 19:52 37.37646 25.02541 12272 ft 332 kts 262°
2026-04-30 19:53 37.37592 24.99639 13084 ft 334 kts 277°
2026-04-30 19:53 37.38126 24.96822 13764 ft 338 kts 288°
2026-04-30 19:53 37.38864 24.94019 13969 ft 338 kts 288°
2026-04-30 19:53 37.39625 24.91173 14024 ft 350 kts 288°
2026-04-30 19:54 37.40412 24.88240 14028 ft 356 kts 288°
2026-04-30 19:54 37.41206 24.85272 14031 ft 358 kts 288°
2026-04-30 19:54 37.41999 24.82296 14027 ft 358 kts 288°
2026-04-30 19:54 37.42789 24.79315 14024 ft 358 kts 287°
2026-04-30 19:55 37.43564 24.76379 14022 ft 358 kts 287°
2026-04-30 19:55 37.44349 24.73401 14018 ft 358 kts 287°
2026-04-30 19:55 37.45133 24.70433 14016 ft 358 kts 287°
2026-04-30 19:55 37.45919 24.67459 14012 ft 357 kts 287°
2026-04-30 19:56 37.46702 24.64480 14013 ft 357 kts 287°
2026-04-30 19:56 37.47479 24.61503 14009 ft 357 kts 287°
2026-04-30 19:56 37.48255 24.58527 14008 ft 357 kts 287°
2026-04-30 19:56 37.49023 24.55587 14006 ft 357 kts 287°
2026-04-30 19:57 37.49801 24.52611 14007 ft 357 kts 287°
2026-04-30 19:57 37.50579 24.49629 14005 ft 357 kts 287°
2026-04-30 19:57 37.51356 24.46650 14007 ft 357 kts 287°
2026-04-30 19:57 37.52122 24.43714 14011 ft 357 kts 287°
2026-04-30 19:58 37.52897 24.40743 14014 ft 357 kts 287°
2026-04-30 19:58 37.53673 24.37771 14012 ft 356 kts 287°
2026-04-30 19:58 37.54445 24.34803 14014 ft 356 kts 287°
2026-04-30 19:58 37.55197 24.31824 14013 ft 356 kts 284°
2026-04-30 19:59 37.55592 24.28749 14016 ft 355 kts 273°
2026-04-30 19:59 37.55531 24.25672 14021 ft 354 kts 266°
2026-04-30 19:59 37.55240 24.19483 14019 ft 354 kts 267°
2026-04-30 20:00 37.55103 24.16381 14019 ft 352 kts 267°
2026-04-30 20:00 37.54970 24.13371 13951 ft 336 kts 267°
2026-04-30 20:00 37.54840 24.10493 13809 ft 321 kts 267°
2026-04-30 20:00 37.54711 24.07713 13471 ft 315 kts 267°
2026-04-30 20:01 37.54457 24.02266 12581 ft 310 kts 267°
2026-04-30 20:01 37.54330 23.99557 12127 ft 309 kts 267°
2026-04-30 20:01 37.54203 23.96854 11732 ft 306 kts 267°
2026-04-30 20:02 37.53945 23.91491 11513 ft 306 kts 267°
2026-04-30 20:02 37.53814 23.88809 11067 ft 305 kts 267°
2026-04-30 20:03 37.53565 23.83601 10617 ft 289 kts 267°
2026-04-30 20:03 37.53446 23.81111 10509 ft 279 kts 267°
2026-04-30 20:03 37.53342 23.78684 10282 ft 274 kts 271°
2026-04-30 20:03 37.53765 23.76410 10156 ft 265 kts 297°
2026-04-30 20:04 37.54950 23.74729 10046 ft 260 kts 324°
2026-04-30 20:04 37.56626 23.73960 9926 ft 258 kts 351°
2026-04-30 20:04 37.58419 23.73808 9462 ft 264 kts 353°
2026-04-30 20:05 37.61658 23.73556 8082 ft 295 kts 354°
2026-04-30 20:05 37.63765 23.73391 7280 ft 309 kts 354°
2026-04-30 20:05 37.68212 23.73077 5692 ft 329 kts 359°
2026-04-30 20:06 37.70446 23.73713 5092 ft 333 kts 25°
2026-04-30 20:06 37.72363 23.75340 4631 ft 330 kts 35°
2026-04-30 20:06 37.74169 23.77039 4166 ft 326 kts 35°
2026-04-30 20:06 37.75982 23.78761 3575 ft 327 kts 35°
2026-04-30 20:07 37.77786 23.80479 3255 ft 319 kts 35°
2026-04-30 20:07 37.79516 23.82131 3186 ft 303 kts 36°
2026-04-30 20:07 37.82762 23.85226 2731 ft 287 kts 35°
2026-04-30 20:08 37.84362 23.86739 2360 ft 286 kts 36°
2026-04-30 20:08 37.85946 23.88240 1981 ft 284 kts 37°
2026-04-30 20:08 37.87508 23.89721 1608 ft 282 kts 37°
2026-04-30 20:08 37.89041 23.91176 1254 ft 264 kts 37°
2026-04-30 20:09 37.90381 23.92450 903 ft 210 kts 36°
2026-04-30 20:09 37.91414 23.93431 630 ft 165 kts 36°
2026-04-30 20:09 37.92992 23.94931 298 ft 123 kts 37°
2026-04-30 20:10 37.93532 23.95444 283 ft 3 kts 37°
2026-04-30 20:10 37.93562 23.95472 283 ft 9 kts 37°
2026-04-30 20:10 37.93649 23.95555 280 ft 22 kts 36°
2026-04-30 20:11 37.93841 23.95434 298 ft 18 kts 307°
2026-04-30 20:11 37.93811 23.95291 301 ft 18 kts 221°
2026-04-30 20:11 37.93711 23.95169 301 ft 18 kts 262°
2026-04-30 20:12 37.93727 23.95011 301 ft 1 kts 301°
2026-04-30 20:12 37.93735 23.94995 302 ft 0 kts 304°
2026-04-30 20:12 37.93741 23.94985 301 ft 3 kts 308°
2026-04-30 20:13 37.93749 23.94972 301 ft 0 kts 307°
2026-04-30 20:13 37.93750 23.94970 301 ft 0 kts 307°